Tracking 31027 objects as of 19-Jul-2025
HD Live streaming from Space Station
objects crossing your sky now

NOAA 16 DEB

Track NOAA 16 DEB now!
10-day predictions


NORAD ID: 41159
Int'l Code: 2000-055CS
Perigee: 781.7 km
Apogee: 812.8 km
Inclination: 98.6 °
Period: 100.7 minutes
Semi major axis: 7168 km
RCS: Unknown
Launch date: September 21, 2000
Source: United States (US)
Launch site: AIR FORCE WESTERN TEST RANGE (AFWTR)

Note: This is SATELLITE DEBRIS
Your satellite tracking list
NOAA 16 DEB
Track 1 satellite(s)




NASA's NSSDC Master Catalog

Two Line Element Set (TLE):
1 41159U 00055CS  25198.63968054  .00002309  00000-0  90080-3 0  9990
2 41159  98.6288 272.5211 0021670  89.8494 270.5172 14.30487220498939
Source of the keplerian elements: AFSPC